Retour au catalogue

GALILEO 24

2C0

ActifNavigationMEO
NORAD 43567·PAYLOAD·🇪🇺 EU

Lancé Jul 25, 2018 depuis Guiana Space Centre

Loading…

Prochains Passages (prochaines 24 heures)

TLE

FraisSource: CelesTrak SupGP

Époque: Sep 13, 2026, 23:59 UTC

1 43567C 18060D   26256.99979167  .00000000  00000+0  00000+0 0  2562
2 43567  57.1359 339.3876 0003885 270.0180 265.3032  1.70476413    13

Suivez GALILEO 24 en temps réel avec AllMySat

Download on the App Store